CZ-4 DEB, 26150

Orbit data source: Space-Track

CZ-4 DEB, 26150 is space debris in SSO originally from a launch on Thu, 14 Oct 1999 UTC launched from the Taiyaun Space Center, China (TSC). Debris objects in space refer to the collection of defunct objects orbiting the Earth. Examples of debris include non-operational satellites, rocket bodies, and fragments generated from explosions, collisions, or faulty payload assembly.

Loading next visibility...
Identifier
26150, 1999-057AL
Orbit
SSO
Last TLE update
6 hours ago
Origin
Manufacturer
Unknown
Mission
Spacecraft
Bus & Motor
Unknown
Mass
Unknown
Launch date (UTC)
1999-10-14 (26 years ago)
Launch vehicle
Unknown
Launch site
Taiyaun Space Center, China (TSC)
Object type
Payload
Rocket body
Debris
Shape & HBR
Unknown
Radar Cross Section
Small (<0.1 m²)

Expand to show TLE details & history

TLE from 6 hours ago
0 CZ-4 DEB
1 26150U 99057AL  25200.23003029  .00000573  00000-0  37589-3 0  9992
2 26150  99.1158 285.1165 0341551 249.4750 132.4568 13.81043520269471
Epoch: 2025-07-19T05:31Z
TLE epoch observation values (Epoch: 2025-07-19T05:31:14.617Z)
Latitude
24.42888°
Longitude
-99.12295°
Altitude
1,136.808 km
Speed
7.2 km/s
True Right ascension
18h 43m 49s
True Declination
24° 18' 22"
Sunlit
Object was in full shadow at epoch
Visualization orbit readout
Latitude
35.86991°
Longitude
91.89822°
Altitude
1,022.448 km
Speed
7.315 km/s
Apparent Right ascension
09h 32m 38s
Apparent Declination
1° 34' 17"
Sunlit
Object is in daylight
Visualization observer readout
Local Sidereal Time
00:10:09
Azimuth
50.824° ENE
Elevation
-35.101°
Doppler factor
1
Orbital elements
Apogee altitude
1,207.96 km
Perigee altitude
706.867 km
Semi-major axis
7,335.55 km
Eccentricity
0.03416
Inclination
99.1158°
RAAN
285.1165°
Arg. of periapsis
249.475°
True anomaly
135.26232°
Mean anomaly
132.4568°
Eccentric anomaly
133.86764°
Mean motion
3.45457 °/min
Orbital period
104.21 mins
BSTAR
0.00037589
Loading maneuver chart data...
Loading SW <> Apogee altitude chart data...
Loading historical data...
Loading historical data...
Loading historical data...
Loading historical data...
Loading historical data...
Loading historical data...
Loading historical data...
|